Terminal Aerodrome Forecast
Issued by NWS

Home | Current Version | Previous Version | Text Only | Print | Product List | Glossary On
Versions: 1 2 3 4 5 6 7 8 9 10 11 12 13 14
000
FTUS44 KLIX 012337
TAFMSY
TAF
KMSY 012337Z 0200/0224 33009KT 5SM -SHRA BKN025 OVC050
      TEMPO 0200/0202 3SM -TSRA BKN025CB
     FM020200 VRB05KT P6SM SCT020 SCT110 BKN250
     FM021300 22007KT P6SM SCT025
     FM021700 22010KT P6SM SCT035=

USA.gov is the U.S. government's official web portal to all federal, state and local government web resources and services.